This demonstration page uses our WeatherBlox Daily Observations layout. Learn more.

Left ArrowRight Arrow

Hourly Observations for December 9, 2015

Temp ( °F °C ) Dew Point ( °F °C ) Humidity (%) Winds ( mph kmh ) Pressure ( in mb ) Visibility ( mi km ) Precip ( " mm )
12:51 am 00:51 Clear 40 4.4 22 -5.6 49 49 ESE 6 9 30.08 1019 10 16 N/A
1:51 am 01:51 Clear 39 3.9 22 -5.6 50 50 ESE 5 7 30.07 1018 10 16 N/A
2:51 am 02:51 Clear 37 2.8 21 -6.1 52 52 ESE 3 6 30.09 1019 10 16 N/A
3:51 am 03:51 Clear 36 2.2 22 -5.6 57 57 E 5 7 30.10 1019 10 16 N/A
4:51 am 04:51 Clear 36 2.2 22 -5.6 57 57 E 8 13 30.10 1019 10 16 N/A
5:51 am 05:51 Clear 36 2.2 23 -5 59 59 N N/A 30.13 1020 10 16 N/A
6:51 am 06:51 Clear 34 1.1 21 -6.1 59 59 N N/A 30.15 1021 10 16 N/A
7:51 am 07:51 Sunny 35 1.7 21 -6.1 57 57 E 3 6 30.18 1022 10 16 N/A
8:51 am 08:51 Sunny 44 6.7 24 -4.4 45 45 E 7 11 30.17 1022 10 16 N/A
9:44 am 09:44 Hazy 50 10 25 -4 37 37 SE 3 6 30.21 1023 1 1 N/A
9:47 am 09:47 Hazy 50 10 25 -4 37 37 N N/A 30.21 1023 3 5 N/A
9:51 am 09:51 Sunny 51 10.6 25 -3.9 36 36 E 3 6 30.16 1022 10 16 N/A
10:12 am 10:12 Hazy 54 12.2 25 -3.9 33 33 ENE 3 6 30.15 1021 2 3 N/A
10:26 am 10:26 Sunny 54 12.2 25 -3.9 33 33 E 6 9 30.15 1021 N/A N/A
10:51 am 10:51 Sunny 56 13.3 25 -3.9 30 30 ESE 5 7 30.13 1020 10 16 N/A
11:44 am 11:44 Hazy 60 15.6 25 -3.9 26 26 SSE 3 6 30.06 1018 3 4 N/A
11:51 am 11:51 Sunny 60 15.6 24 -4.4 25 25 VRB 3 6 30.09 1019 10 16 N/A
12:51 pm 12:51 Sunny 63 17.2 24 -4.4 23 23 N N/A 30.04 1017 10 16 N/A
1:51 pm 13:51 Sunny 67 19.4 24 -4.4 20 20 VRB 3 6 30.00 1016 10 16 N/A
2:51 pm 14:51 Sunny 66 18.9 24 -4.4 20 20 WSW 5 7 29.98 1015 10 16 N/A
3:51 pm 15:51 Sunny 65 18.3 25 -3.9 22 22 W 7 11 29.98 1015 10 16 N/A
4:51 pm 16:51 Sunny 62 16.7 25 -3.9 24 24 WNW 6 9 29.99 1016 10 16 N/A
5:51 pm 17:51 Clear 58 14.4 25 -3.9 28 28 NW 7 11 30.01 1016 10 16 N/A
6:51 pm 18:51 Clear 52 11.1 24 -4.4 34 34 NNW 5 7 30.03 1017 10 16 N/A
7:51 pm 19:51 Clear 50 10 25 -3.9 38 38 SSE 3 6 30.03 1017 10 16 N/A
8:51 pm 20:51 Clear 47 8.3 23 -5 39 39 N N/A 30.03 1017 10 16 N/A
9:51 pm 21:51 Clear 45 7.2 23 -5 42 42 N N/A 30.04 1017 10 16 N/A
10:51 pm 22:51 Clear 42 5.6 23 -5 47 47 SSE 5 7 30.02 1017 10 16 N/A
11:51 pm 23:51 Clear 42 5.6 25 -3.9 51 51 SE 5 7 30.01 1016 10 16 N/A

Powered by AerisWeather